User: anonymous   Login
Location: Luxembourg
(49.6117°N, 6.1300°E)
Time: 16:36:54
(UTC+02:00)
Language:

Tiangong 2 - Orbit

View from above orbital plane
View from above orbital plane
View from above satellite
View from above satellite

Ground track
Ground track

The orbit data is extracted from the following two-line orbital elements,

1 41765U 16057A   19107.86712324 +.00004474 +00000-0 +55671-4 0  9990
2 41765 042.7847 326.6739 0008017 218.0412 207.2673 15.61261035147613
Epoch (UTC): 17 April 2019 20:48:39
Eccentricity: 0.0008017
inclination: 42.7847°
perigee height: 378 km
apogee height: 389 km
right ascension of ascending node: 326.6739°
argument of perigee: 218.0412°
revolutions per day: 15.61261035
mean anomaly at epoch: 207.2673°
orbit number at epoch: 14761

The dashed part of the orbit path shows where the satellite is in the earth's shadow,  

DLR